Regional Weather Roundup
Issued by NWS

Home | Current Version | Previous Version | Text Only | Print | Product List | Glossary On
Versions: 1 2 3 4 5 6 7 8 9 10 11 12 13 14 15 16 17 18 19 20 21 22 23 24 25 26 27 28 29 30 31 32 33 34 35 36 37 38 39 40 41 42 43 44 45 46 47 48 49 50
000
ASUS45 KABQ 260610
RWRNM
NEW MEXICO REGIONAL WEATHER ROUNDUP
NATIONAL WEATHER SERVICE ALBUQUERQUE NM
1200 AM MDT MON JUN 26 2017

NOTE: "FAIR" MEANS FEW OR NO CLOUDS BELOW 12,000 FEET AGL WITH NO
       SIGNIFICANT WEATHER OR OBSTRUCTIONS TO VISION.

      THIS PRODUCT IS RELEASED AS TWO VERSIONS.  ONE VERSION NEAR
      THE TOP OF THE HOUR CONTAINING PRELIMINARY DATA FROM ALBUQUERQUE
      AND OTHER STATIONS.  A FINAL VERSION WITH ADDITIONAL DATA IS
      ISSUED ABOUT 10 MINUTES AFTER THE HOUR.

NMZ501-503-504-510>518-260700-
NORTHWEST PLATEAU/NORTHCENTRAL MOUNTAINS

CITY           SKY/WX    TMP DP  RH WIND       PRES   REMARKS
FARMINGTON     FAIR      76  40  27 CALM      30.15R
6HR MIN TEMP:  75; 6HR MAX TEMP:  93;

LOS ALAMOS     FAIR      60  48  65 S12       30.41S
SANTA FE       FAIR      62  51  67 S13       30.36S
6HR MIN TEMP:  62; 6HR MAX TEMP:  77; 6HR PCP: TRACE;

TAOS           FAIR      63  45  51 CALM      30.41R
ANGEL FIRE     FAIR      50  49  95 SE3       30.50S

$$
NMZ402-403-502-505>509-260700-
WESTCENTRAL MOUNTAINS/SOUTHWEST MOUNTAINS

CITY           SKY/WX    TMP DP  RH WIND       PRES   REMARKS
GALLUP         FAIR      64  45  49 SW5       30.30F
6HR MIN TEMP:  64; 6HR MAX TEMP:  86; 6HR PCP: TRACE;

GRANTS         FAIR      62  49  64 CALM      30.31F
SILVER CITY    FAIR      66  56  70 E9        30.33R

$$
NMZ407-409-411-412-260700-
SOUTHERN DESERTS

CITY           SKY/WX    TMP DP  RH WIND       PRES   REMARKS
DEMING         FAIR      73  56  54 N8        30.25R
6HR MIN TEMP:  72; 6HR MAX TEMP:  92;

LAS CRUCES     MOCLDY    72  56  58 E9        30.25S
HOLLOMAN AFB   FAIR      70  62  77 W13       30.23F
ALAMOGORDO     FAIR      68  57  68 S3        30.20F
T OR C         FAIR      71  58  63 SW15      30.25F
6HR MIN TEMP:  70; 6HR MAX TEMP:  83; 6HR PCP:  0.01;


$$
NMZ519>523-260700-
CENTRAL VALLEYS/CENTRAL HIGHLANDS

CITY           SKY/WX    TMP DP  RH WIND       PRES   REMARKS
ALBUQUERQUE    FAIR      70  50  49 E13       30.28R
6HR MIN TEMP:  69; 6HR MAX TEMP:  73;

DOUBLE EAGLE   FAIR      62  50  63 S6        30.31R
MORIARTY ARPT  FAIR      56  54  91 CALM      30.39S
6HR MIN TEMP:  56; 6HR MAX TEMP:  72;

CLINES CORNERS NOT AVBL
BELEN          FAIR      65  55  68 S7        30.27F
6HR MIN TEMP:  64; 6HR MAX TEMP:  69; 6HR PCP:  0.01;

SOCORRO        FAIR      68  53  59 W7        30.25S
6HR MIN TEMP:  66; 6HR MAX TEMP:  73;


$$
NMZ524>526-539-540-260700-
SOUTHCENTRAL MOUNTAINS

CITY           SKY/WX    TMP DP  RH WIND       PRES   REMARKS
RUIDOSO        FAIR      55  52  88 E5        30.42F

$$
NMZ527>531-260700-
NORTHEAST HIGHLANDS/NORTHEAST PLAINS

CITY           SKY/WX    TMP DP  RH WIND       PRES   REMARKS
LAS VEGAS      FAIR      53  51  93 S9        30.41F
6HR MIN TEMP:  53; 6HR MAX TEMP:  64; 6HR PCP:  0.02;

RATON          FAIR      59  56  89 NW3       30.36F
6HR MIN TEMP:  59; 6HR MAX TEMP:  67; 6HR PCP:  0.03;

CLAYTON        FAIR      59  58  96 SW7       30.32R
6HR MIN TEMP:  58; 6HR MAX TEMP:  73; 6HR PCP:  0.08;


$$
NMZ532>537-260700-
EASTCENTRAL PLAINS

CITY           SKY/WX    TMP DP  RH WIND       PRES   REMARKS
SANTA ROSA     FAIR      62  55  78 E12       30.30S
TUCUMCARI      MOCLDY    63  60  90 E14       30.30R
6HR MIN TEMP:  63; 6HR MAX TEMP:  80; 6HR PCP:  0.72;

CANNON AFB     LGT RAIN  61  61 100 S9        30.32F
6HR MIN TEMP:  61; 6HR MAX TEMP:  81; 6HR PCP:  0.83;

CLOVIS AIRPORT LGT RAIN  61  59  94 E12       30.35F

$$
NMZ028-029-538-260700-
SOUTHEAST PLAINS

CITY           SKY/WX    TMP DP  RH WIND       PRES   REMARKS
ROSWELL        FAIR      65  61  87 E6        30.22F
6HR MIN TEMP:  65; 6HR MAX TEMP:  90; 6HR PCP:  0.10;

ARTESIA        DRIZZLE   68  64  88 CALM      30.26R
CARLSBAD       LGT RAIN  67  66  97 N12       30.23R
6HR MIN TEMP:  66; 6HR MAX TEMP:  90; 6HR PCP:  0.07;

HOBBS          MOCLDY    75  59  57 W13       30.26R


$$




USA.gov is the U.S. government's official web portal to all federal, state and local government web resources and services.